Regional Weather Roundup
Issued by NWS

Home | Current Version | Previous Version | Graphics & Text | Print | Product List | Glossary On
Versions: 1 2 3 4 5 6 7 8 9 10 11 12 13 14 15 16 17 18 19 20 21 22 23 24 25 26 27 28 29 30 31 32 33 34 35 36 37 38 39 40 41 42 43 44 45 46 47 48 49 50
000
ASUS43 KIND 291209
RWRIN

WEATHER ROUNDUP FOR INDIANA
NATIONAL WEATHER SERVICE INDIANAPOLIS IN
800 AM EDT TUE JUL 29 2014

NOTE: "FAIR" INDICATES FEW OR NO CLOUDS BELOW 12,000 FEET WITH NO
SIGNIFICANT WEATHER AND/OR OBSTRUCTIONS TO VISIBILITY.

* - STATION DOES NOT REPORT WEATHER SUCH AS PRECIPITATION OR FOG.

+ - STATION NOT QUALITY CONTROLLED BY THE NATIONAL WEATHER SERVICE.
    USE DATA WITH CAUTION...ESPECIALLY DEWPOINT AND RELATIVE
    HUMIDITY OBSERVATIONS.

INZ001>003-010>013-019-020-291300-
NORTHWEST INDIANA

CITY           SKY/WX    TMP DP  RH WIND       PRES   REMARKS
GARY /AIRPORT/ MOSUNNY   57  54  88 SW5       30.06
KNOX *+        SUNNY     49  47  93 CALM      30.05R
LA PORTE +     MOSUNNY   53  53 100 SW5       30.05S
6HR MIN TEMP:  48; 6HR MAX TEMP:  57;

MICHIGAN CITY+ MOSUNNY   54  52  94 SW3       30.05S
MONTICELLO +   SUNNY     52  51  97 CALM      30.06R
RENSSELAER +   MOSUNNY   52  52 100 SW3       30.07R
VALPARAISO     MOSUNNY   54  51  90 SW5       30.06R
6HR MIN TEMP:  51; 6HR MAX TEMP:  58;


$$

LMZ046-743>745-291300-
SOUTHERN LAKE MICHIGAN

STATION/POSITION TIME  TEMP WIND        PRES
                       AIR  DIR/SP/G
                 (UTC) (F)  (DEG/KT/KT) (MB)
MICHIGAN CITY    1200   58  190/  9/ 10   N/A

$$

INZ004-005-014>016-021>024-291300-
NORTH CENTRAL INDIANA

CITY           SKY/WX    TMP DP  RH WIND       PRES   REMARKS
GOSHEN         SUNNY     51  49  92 S5        30.05R
6HR MIN TEMP:  49; 6HR MAX TEMP:  51;

LOGANSPORT +   SUNNY     52  50  93 CALM      30.07S
PERU/GRISSOM   SUNNY     52  52 100 SW3       30.06S
6HR MIN TEMP:  49; 6HR MAX TEMP:  55;

ROCHESTER +    SUNNY     55  52  88 CALM      30.07R
SOUTH BEND     PTSUNNY   53  50  89 SW6       30.05R
6HR MIN TEMP:  50; 6HR MAX TEMP:  55;

WARSAW +       SUNNY     50  50 100 CALM      30.06R

$$

INZ006>009-017-018-025>027-291300-
NORTHEAST INDIANA

CITY           SKY/WX    TMP DP  RH WIND       PRES   REMARKS
ANGOLA *+      SUNNY     52  48  87 CALM      30.04S
AUBURN +       SUNNY     52  48  87 CALM      30.05S
FORT WAYNE     SUNNY     51  49  92 W3        30.06S
6HR MIN TEMP:  48; 6HR MAX TEMP:  53;

HUNTINGTON +   SUNNY     50  48  95 CALM      30.06R
6HR MIN TEMP:  47; 6HR MAX TEMP:  51;


$$

INZ028-029-035-036-043>045-051>053-291300-
WEST CENTRAL INDIANA

CITY           SKY/WX    TMP DP  RH WIND       PRES   REMARKS
GREENCASTLE +  MOSUNNY   54  52  94 CALM      30.09R
LAFAYETTE      SUNNY     53  51  93 CALM      30.08R
6HR MIN TEMP:  50; 6HR MAX TEMP:  53;

TERRE HAUTE    SUNNY     55  52  89 CALM      30.09R
6HR MIN TEMP:  51; 6HR MAX TEMP:  56;


$$

INZ030>032-037>040-046>048-054>057-064-065-291300-
CENTRAL INDIANA

CITY           SKY/WX    TMP DP  RH WIND       PRES   REMARKS
CP ATTERBURY + PTSUNNY   54  50  87 NW3       30.08S
COLUMBUS       MOSUNNY   54  52  94 CALM      30.08R
GREENWOOD *+   SUNNY     57  55  94 CALM      30.08
INDIANAPOLIS   MOSUNNY   56  50  80 W3        30.07R
6HR MIN TEMP:  52; 6HR MAX TEMP:  56;

-EAGLE CREEK   SUNNY     56  50  80 CALM      30.07R
6HR MIN TEMP:  55; 6HR MAX TEMP:  57;

KOKOMO *+      SUNNY     54  50  87 CALM      30.07S
MARION +       SUNNY     48  47  97 CALM      30.08R
MT COMFORT *+  SUNNY     54 N/A N/A W3        30.08R
SHELBYVILLE    SUNNY     55  51  86 CALM      30.07R
6HR MIN TEMP:  51; 6HR MAX TEMP:  55;

ZIONSVILLE +   MOSUNNY   55  50  86 CALM      30.08S
6HR MIN TEMP:  53; 6HR MAX TEMP:  56;


$$

INZ033-034-041-042-049-050-058-059-291300-
EAST CENTRAL INDIANA

CITY           SKY/WX    TMP DP  RH WIND       PRES   REMARKS
MUNCIE         SUNNY     51  48  89 CALM      30.07R
6HR MIN TEMP:  47; 6HR MAX TEMP:  51;


$$

INZ060-061-067>069-081>083-085>088-291300-
SOUTHWEST INDIANA

CITY           SKY/WX    TMP DP  RH WIND       PRES   REMARKS
EVANSVILLE     PTSUNNY   58  51  78 W7        30.11S
6HR MIN TEMP:  58; 6HR MAX TEMP:  62;

WASHINGTON +   SUNNY     55  53  92 W5        30.10R
6HR MIN TEMP:  51; 6HR MAX TEMP:  56;


$$

INZ062-063-066-070>080-084-089>092-291300-
SOUTH CENTRAL AND SOUTHEAST INDIANA

CITY           SKY/WX    TMP DP  RH WIND       PRES   REMARKS
BLOOMINGTON    MOSUNNY   55  51  86 CALM      30.08S
6HR MIN TEMP:  52; 6HR MAX TEMP:  55;

SEYMOUR +      SUNNY     50  39  66 NW3       30.08R

$$




USA.gov is the U.S. government's official web portal to all federal, state and local government web resources and services.